,,Stat5,,Stat1,,Stat2,,Stat3,,Stat4,,Wind1,,Wind1,
time,status,PA1M_AVG,status,PR1M_SUM,status,RH1M_AVG,status,SR1M_AVG,status,TA1M_AVG,status,W1dAve1m,status,W1sAve1m,
2002-09-20, 00:00:00,VALID,919.811,VALID,0,VALID,98.7541,VALID,0.0679233,VALID,20.0346,VALID,157,VALID,0.488281,
2002-09-20, 00:01:00,VALID,919.803,VALID,0,VALID,98.7833,VALID,0.0849042,VALID,20.0538,VALID,161,VALID,0.67462,
2002-09-20, 00:02:00,VALID,919.784,VALID,0,VALID,98.8024,VALID,0,VALID,20.0747,VALID,161,VALID,0.93892,
2002-09-20, 00:03:00,VALID,919.762,VALID,0,VALID,98.824,VALID,-0.0509425,VALID,20.0781,VALID,144,VALID,0.997396,
2002-09-20, 00:04:00,VALID,919.745,VALID,0,VALID,98.8787,VALID,-0.0679233,VALID,20.1042,VALID,143,VALID,0.705653,
2002-09-20, 00:05:00,VALID,919.739,VALID,0,VALID,98.9105,VALID,-0.0339617,VALID,20.1206,VALID,142,VALID,0.862453,
2002-09-20, 00:06:00,VALID,919.737,VALID,0,VALID,98.9321,VALID,-0.0679233,VALID,20.1266,VALID,167,VALID,0.147135,
2002-09-20, 00:07:00,VALID,919.732,VALID,0,VALID,98.9321,VALID,-0.0509425,VALID,20.1365,VALID,142,VALID,0.25692,
2002-09-20, 00:08:00,VALID,919.747,VALID,0,VALID,98.9448,VALID,-0.0509425,VALID,20.143,VALID,154,VALID,0.0422363,
2002-09-20, 00:09:00,VALID,919.75,VALID,0,VALID,98.9626,VALID,-0.0339617,VALID,20.1656,VALID,154,VALID,0,
2002-09-20, 00:10:00,VALID,919.757,VALID,0,VALID,98.955,VALID,-0.0509425,VALID,20.1688,VALID,154,VALID,0,
2002-09-20, 00:11:00,VALID,919.771,VALID,0,VALID,98.9677,VALID,-0.0679233,VALID,20.1683,VALID,154,VALID,0,
2002-09-20, 00:12:00,VALID,919.753,VALID,0,VALID,98.9855,VALID,-0.0339617,VALID,20.1947,VALID,154,VALID,0,
2002-09-20, 00:13:00,VALID,919.746,VALID,0,VALID,98.9626,VALID,-0.0509425,VALID,20.1977,VALID,154,VALID,0,
2002-09-20, 00:14:00,VALID,919.735,VALID,0,VALID,98.9245,VALID,-0.0339617,VALID,20.1686,VALID,154,VALID,0,
2002-09-20, 00:15:00,VALID,919.73,VALID,0,VALID,98.9258,VALID,-0.0679233,VALID,20.1594,VALID,153,VALID,0.0455729,
2002-09-20, 00:16:00,VALID,919.715,VALID,0,VALID,98.9537,VALID,-0.0339617,VALID,20.1527,VALID,136,VALID,0.0662946,
2002-09-20, 00:17:00,VALID,919.73,VALID,0,VALID,98.9652,VALID,-0.0169808,VALID,20.1293,VALID,119,VALID,0.244081,
2002-09-20, 00:18:00,VALID,919.728,VALID,0,VALID,98.9626,VALID,0,VALID,20.139,VALID,73,VALID,0.354167,
2002-09-20, 00:19:00,VALID,919.689,VALID,0,VALID,98.9588,VALID,-0.0169808,VALID,20.1132,VALID,67,VALID,0.588839,
2002-09-20, 00:20:00,VALID,919.663,VALID,0,VALID,98.9436,VALID,0,VALID,20.1137,VALID,70,VALID,0.845703,
2002-09-20, 00:21:00,VALID,919.64,VALID,0,VALID,98.8253,VALID,-0.0169808,VALID,20.0682,VALID,90,VALID,1.02886,
2002-09-20, 00:22:00,VALID,919.59,VALID,0,VALID,98.8139,VALID,-0.0339617,VALID,20.0033,VALID,96,VALID,1.14196,
2002-09-20, 00:23:00,VALID,919.55,VALID,0,VALID,98.9232,VALID,-0.0169808,VALID,19.9912,VALID,113,VALID,1.10724,
2002-09-20, 00:24:00,VALID,919.521,VALID,0,VALID,98.9741,VALID,0,VALID,19.9909,VALID,113,VALID,1.22114,
2002-09-20, 00:25:00,VALID,919.507,VALID,0,VALID,99.002,VALID,-0.0169808,VALID,19.9877,VALID,109,VALID,1.15112,
2002-09-20, 00:26:00,VALID,919.513,VALID,0,VALID,99.0364,VALID,-0.0339617,VALID,20.0006,VALID,115,VALID,0.80127,
2002-09-20, 00:27:00,VALID,919.527,VALID,0,VALID,99.0567,VALID,0,VALID,20.0071,VALID,57,VALID,0.452474,
2002-09-20, 00:28:00,VALID,919.542,VALID,0,VALID,99.086,VALID,-0.0339617,VALID,20.0332,VALID,107,VALID,0.58192,
2002-09-20, 00:29:00,VALID,919.582,VALID,0,VALID,99.0949,VALID,0,VALID,20.0359,VALID,107,VALID,0.0906724,
2002-09-20, 00:30:00,VALID,919.587,VALID,0,VALID,99.1165,VALID,-0.0169808,VALID,20.062,VALID,107,VALID,0.00108507,
2002-09-20, 00:31:00,VALID,919.596,VALID,0,VALID,99.1305,VALID,0,VALID,20.0677,VALID,110,VALID,0,
2002-09-20, 00:32:00,VALID,919.622,VALID,0,VALID,99.1483,VALID,0,VALID,20.0876,VALID,111,VALID,0,
2002-09-20, 00:33:00,VALID,919.641,VALID,0,VALID,99.1572,VALID,0,VALID,20.1035,VALID,126,VALID,0,
2002-09-20, 00:34:00,VALID,919.652,VALID,0,VALID,99.1546,VALID,0,VALID,20.1107,VALID,232,VALID,0.438393,
2002-09-20, 00:35:00,VALID,919.683,VALID,0,VALID,99.1381,VALID,-0.0169808,VALID,20.0908,VALID,248,VALID,0.411222,
2002-09-20, 00:36:00,VALID,919.719,VALID,0,VALID,99.133,VALID,-0.0169808,VALID,20.0883,VALID,252,VALID,0.304253,
2002-09-20, 00:37:00,VALID,919.732,VALID,0,VALID,99.1546,VALID,0,VALID,20.0844,VALID,290,VALID,0.25067,
2002-09-20, 00:38:00,VALID,919.76,VALID,0,VALID,99.1572,VALID,0,VALID,20.0973,VALID,294,VALID,0.0217285,
2002-09-20, 00:39:00,VALID,919.782,VALID,0,VALID,99.1623,VALID,-0.0169808,VALID,20.094,VALID,314,VALID,0.220486,
2002-09-20, 00:40:00,VALID,919.786,VALID,0,VALID,99.1623,VALID,-0.0169808,VALID,20.0943,VALID,342,VALID,0.223438,
2002-09-20, 00:41:00,VALID,919.793,VALID,0,VALID,99.1623,VALID,0,VALID,20.0911,VALID,343,VALID,0.130208,
2002-09-20, 00:42:00,VALID,919.804,VALID,0,VALID,99.1635,VALID,-0.0169808,VALID,20.0913,VALID,1,VALID,0.168837,
2002-09-20, 00:43:00,VALID,919.808,VALID,0,VALID,99.1686,VALID,0,VALID,20.094,VALID,14,VALID,0.339063,
2002-09-20, 00:44:00,VALID,919.808,VALID,0,VALID,99.1788,VALID,0,VALID,20.1134,VALID,16,VALID,0.45874,
2002-09-20, 00:45:00,VALID,919.8,VALID,0,VALID,99.189,VALID,0,VALID,20.1497,VALID,18,VALID,0.465495,
2002-09-20, 00:46:00,VALID,919.793,VALID,0,VALID,99.2004,VALID,-0.0169808,VALID,20.1589,VALID,19,VALID,0.234152,
2002-09-20, 00:47:00,VALID,919.797,VALID,0,VALID,99.2068,VALID,-0.0339617,VALID,20.1847,VALID,19,VALID,0.173532,
2002-09-20, 00:48:00,VALID,919.793,VALID,0,VALID,99.2131,VALID,0,VALID,20.1842,VALID,19,VALID,0.0865885,
2002-09-20, 00:49:00,VALID,919.779,VALID,0,VALID,99.2042,VALID,-0.0169808,VALID,20.185,VALID,19,VALID,0,
2002-09-20, 00:50:00,VALID,919.774,VALID,0,VALID,99.2042,VALID,0,VALID,20.1877,VALID,19,VALID,0,
2002-09-20, 00:51:00,VALID,919.77,VALID,0,VALID,99.2068,VALID,0,VALID,20.1942,VALID,19,VALID,0,
2002-09-20, 00:52:00,VALID,919.788,VALID,0,VALID,99.2017,VALID,-0.0339617,VALID,20.1907,VALID,19,VALID,0,
2002-09-20, 00:53:00,VALID,919.794,VALID,0,VALID,99.2004,VALID,-0.0169808,VALID,20.2103,VALID,19,VALID,0.129735,
2002-09-20, 00:54:00,VALID,919.806,VALID,0,VALID,99.203,VALID,0,VALID,20.2205,VALID,19,VALID,0.145399,
2002-09-20, 00:55:00,VALID,919.81,VALID,0,VALID,99.2144,VALID,0,VALID,20.2101,VALID,19,VALID,0.120536,
2002-09-20, 00:56:00,VALID,919.826,VALID,0,VALID,99.2131,VALID,0,VALID,20.2131,VALID,15,VALID,0.530762,
2002-09-20, 00:57:00,VALID,919.83,VALID,0,VALID,99.2042,VALID,-0.0169808,VALID,20.2198,VALID,19,VALID,0.865668,
2002-09-20, 00:58:00,VALID,919.818,VALID,0,VALID,99.2182,VALID,-0.0169808,VALID,20.2394,VALID,28,VALID,1.05915,
2002-09-20, 00:59:00,VALID,919.795,VALID,0,VALID,99.2157,VALID,0,VALID,20.2324,VALID,21,VALID,1.14039,
2002-09-20, 01:00:00,VALID,919.779,VALID,0,VALID,99.2182,VALID,0,VALID,20.2225,VALID,27,VALID,1.17296,
2002-09-20, 01:01:00,VALID,919.757,VALID,0,VALID,99.1902,VALID,-0.0169808,VALID,20.2267,VALID,19,VALID,1.37165,
2002-09-20, 01:02:00,VALID,919.723,VALID,0,VALID,99.1674,VALID,-0.0169808,VALID,20.1875,VALID,14,VALID,0.977051,
2002-09-20, 01:03:00,VALID,919.706,VALID,0,VALID,99.1686,VALID,0,VALID,20.1651,VALID,21,VALID,0.962457,
2002-09-20, 01:04:00,VALID,919.685,VALID,0,VALID,99.1775,VALID,0,VALID,20.178,VALID,19,VALID,0.878125,
2002-09-20, 01:05:00,VALID,919.667,VALID,0,VALID,99.1674,VALID,0,VALID,20.1649,VALID,9,VALID,1.05634,
2002-09-20, 01:06:00,VALID,919.649,VALID,0,VALID,99.1546,VALID,-0.0339617,VALID,20.136,VALID,6,VALID,1.07292,
2002-09-20, 01:07:00,VALID,919.633,VALID,0,VALID,99.1305,VALID,-0.0169808,VALID,20.0903,VALID,14,VALID,1.35357,
2002-09-20, 01:08:00,VALID,919.587,VALID,0,VALID,99.1025,VALID,0,VALID,20.0356,VALID,14,VALID,1.271,
2002-09-20, 01:09:00,VALID,919.558,VALID,0,VALID,99.105,VALID,0,VALID,20.0197,VALID,25,VALID,0.934245,
2002-09-20, 01:10:00,VALID,919.522,VALID,0,VALID,99.1076,VALID,0,VALID,19.9999,VALID,26,VALID,1.30201,
2002-09-20, 01:11:00,VALID,919.472,VALID,0,VALID,99.0847,VALID,0,VALID,19.9447,VALID,18,VALID,1.38329,
2002-09-20, 01:12:00,VALID,919.43,VALID,0,VALID,99.0847,VALID,0,VALID,19.9196,VALID,23,VALID,1.56923,
2002-09-20, 01:13:00,VALID,919.408,VALID,0,VALID,99.1114,VALID,-0.0169808,VALID,19.9062,VALID,20,VALID,1.25826,
2002-09-20, 01:14:00,VALID,919.388,VALID,0,VALID,99.1343,VALID,0,VALID,19.9094,VALID,14,VALID,1.13794,
2002-09-20, 01:15:00,VALID,919.377,VALID,0,VALID,99.1368,VALID,0,VALID,19.9094,VALID,11,VALID,1.03668,
2002-09-20, 01:16:00,VALID,919.375,VALID,0,VALID,99.1546,VALID,0,VALID,19.9,VALID,18,VALID,1.0442,
2002-09-20, 01:17:00,VALID,919.384,VALID,0,VALID,99.1699,VALID,0,VALID,19.9196,VALID,6,VALID,0.743134,
2002-09-20, 01:18:00,VALID,919.396,VALID,0,VALID,99.1712,VALID,0.0169808,VALID,19.8928,VALID,358,VALID,1.01172,
2002-09-20, 01:19:00,VALID,919.405,VALID,0,VALID,99.1712,VALID,0,VALID,19.8935,VALID,8,VALID,1.25268,
2002-09-20, 01:20:00,VALID,919.419,VALID,0,VALID,99.1737,VALID,0,VALID,19.8811,VALID,354,VALID,0.921387,
2002-09-20, 01:21:00,VALID,919.418,VALID,0,VALID,99.1852,VALID,0,VALID,19.8674,VALID,351,VALID,0.77474,
2002-09-20, 01:22:00,VALID,919.404,VALID,0,VALID,99.1864,VALID,0.0169808,VALID,19.8781,VALID,359,VALID,1.00201,
2002-09-20, 01:23:00,VALID,919.388,VALID,0,VALID,99.2004,VALID,0.0339617,VALID,19.8811,VALID,12,VALID,0.597775,
2002-09-20, 01:24:00,VALID,919.379,VALID,0,VALID,99.2208,VALID,0.0169808,VALID,19.9002,VALID,25,VALID,0.672309,
2002-09-20, 01:25:00,VALID,919.375,VALID,0,VALID,99.2424,VALID,0,VALID,19.9328,VALID,22,VALID,0.966295,
2002-09-20, 01:26:00,VALID,919.349,VALID,0,VALID,99.2538,VALID,0,VALID,19.9611,VALID,17,VALID,0.331543,
2002-09-20, 01:27:00,VALID,919.333,VALID,0,VALID,99.2653,VALID,0,VALID,19.974,VALID,354,VALID,0.350911,
2002-09-20, 01:28:00,VALID,919.318,VALID,0,VALID,99.2551,VALID,0.0169808,VALID,19.9745,VALID,25,VALID,0.262723,
2002-09-20, 01:29:00,VALID,919.312,VALID,0,VALID,99.264,VALID,0.0169808,VALID,19.977,VALID,25,VALID,0.00852273,
2002-09-20, 01:30:00,VALID,919.302,VALID,0,VALID,99.2576,VALID,0.0509425,VALID,19.9971,VALID,66,VALID,0.154948,
2002-09-20, 01:31:00,VALID,919.3,VALID,0,VALID,99.2653,VALID,0.0339617,VALID,19.9934,VALID,105,VALID,0,
2002-09-20, 01:32:00,VALID,919.298,VALID,0,VALID,99.2627,VALID,-0.0849042,VALID,20.0044,VALID,105,VALID,0,
2002-09-20, 01:33:00,VALID,919.301,VALID,0,VALID,99.2843,VALID,-0.0849042,VALID,20.0275,VALID,104,VALID,0.0501302,
2002-09-20, 01:34:00,VALID,919.305,VALID,0,VALID,99.2894,VALID,-0.0849042,VALID,20.0662,VALID,75,VALID,0.16183,
2002-09-20, 01:35:00,VALID,919.294,VALID,0,VALID,99.2894,VALID,-0.0849042,VALID,20.1058,VALID,54,VALID,0.265625,
2002-09-20, 01:36:00,VALID,919.286,VALID,0,VALID,99.2907,VALID,-0.0849042,VALID,20.1015,VALID,49,VALID,0.347005,
2002-09-20, 01:37:00,VALID,919.278,VALID,0,VALID,99.292,VALID,-0.0849042,VALID,20.1279,VALID,46,VALID,0.309152,
2002-09-20, 01:38:00,VALID,919.267,VALID,0,VALID,99.2869,VALID,-0.101885,VALID,20.1378,VALID,43,VALID,0.290527,
2002-09-20, 01:39:00,VALID,919.25,VALID,0,VALID,99.2945,VALID,-0.0849042,VALID,20.1478,VALID,36,VALID,0.509332,
2002-09-20, 01:40:00,VALID,919.235,VALID,0,VALID,99.2894,VALID,-0.0849042,VALID,20.1639,VALID,35,VALID,0.461384,
2002-09-20, 01:41:00,VALID,919.195,VALID,0,VALID,99.2805,VALID,-0.118866,VALID,20.1478,VALID,35,VALID,0.229877,
2002-09-20, 01:42:00,VALID,919.185,VALID,0,VALID,99.2843,VALID,-0.101885,VALID,20.1276,VALID,35,VALID,0.174262,
2002-09-20, 01:43:00,VALID,919.16,VALID,0,VALID,99.2742,VALID,-0.101885,VALID,20.1274,VALID,35,VALID,0.251563,
2002-09-20, 01:44:00,VALID,919.166,VALID,0,VALID,99.2678,VALID,-0.0679233,VALID,20.1279,VALID,35,VALID,0.0693359,
2002-09-20, 01:45:00,VALID,919.159,VALID,0,VALID,99.2729,VALID,-0.0509425,VALID,20.1214,VALID,35,VALID,0.0768229,
2002-09-20, 01:46:00,VALID,919.159,VALID,0,VALID,99.2615,VALID,-0.0849042,VALID,20.0794,VALID,35,VALID,0.0799107,
2002-09-20, 01:47:00,VALID,919.152,VALID,0,VALID,99.2627,VALID,-0.0169808,VALID,20.0419,VALID,35,VALID,0,
2002-09-20, 01:48:00,VALID,919.146,VALID,0,VALID,99.2513,VALID,0.0509425,VALID,20.0448,VALID,35,VALID,0,
2002-09-20, 01:49:00,VALID,919.137,VALID,0,VALID,99.2678,VALID,0.0169808,VALID,20.0682,VALID,35,VALID,0.106696,
2002-09-20, 01:50:00,VALID,919.134,VALID,0,VALID,99.2742,VALID,0,VALID,20.0776,VALID,29,VALID,0.418945,
2002-09-20, 01:51:00,VALID,919.131,VALID,0,VALID,99.278,VALID,0,VALID,20.0908,VALID,18,VALID,0.594184,
2002-09-20, 01:52:00,VALID,919.12,VALID,0,VALID,99.2843,VALID,0,VALID,20.1127,VALID,18,VALID,0.567411,
2002-09-20, 01:53:00,VALID,919.126,VALID,0,VALID,99.2818,VALID,0.0339617,VALID,20.1328,VALID,21,VALID,0.563684,
2002-09-20, 01:54:00,VALID,919.117,VALID,0,VALID,99.2831,VALID,0.0169808,VALID,20.1263,VALID,22,VALID,0.451172,
2002-09-20, 01:55:00,VALID,919.119,VALID,0,VALID,99.2805,VALID,0,VALID,20.1263,VALID,26,VALID,0.121652,
2002-09-20, 01:56:00,VALID,919.105,VALID,0,VALID,99.2754,VALID,0,VALID,20.1134,VALID,26,VALID,0,
2002-09-20, 01:57:00,VALID,919.107,VALID,0,VALID,99.2754,VALID,0.0169808,VALID,20.1075,VALID,26,VALID,0,
2002-09-20, 01:58:00,VALID,919.091,VALID,0,VALID,99.2665,VALID,0.0509425,VALID,20.104,VALID,26,VALID,0,
2002-09-20, 01:59:00,VALID,919.088,VALID,0,VALID,99.2678,VALID,0.0339617,VALID,20.1062,VALID,26,VALID,0.145833,
2002-09-20, 02:00:00,VALID,919.09,VALID,0,VALID,99.2742,VALID,0.0169808,VALID,20.1065,VALID,26,VALID,0.407986,
2002-09-20, 02:01:00,VALID,919.094,VALID,0,VALID,99.2793,VALID,0,VALID,20.1326,VALID,27,VALID,0.351339,
2002-09-20, 02:02:00,VALID,919.086,VALID,0,VALID,99.292,VALID,0,VALID,20.1557,VALID,27,VALID,0.149658,
2002-09-20, 02:03:00,VALID,919.082,VALID,0,VALID,99.2907,VALID,0.0169808,VALID,20.1557,VALID,27,VALID,0,
2002-09-20, 02:04:00,VALID,919.073,VALID,0,VALID,99.2869,VALID,0,VALID,20.1256,VALID,25,VALID,0.000892857,
2002-09-20, 02:05:00,VALID,919.04,VALID,0,VALID,99.2742,VALID,0,VALID,20.1231,VALID,25,VALID,0,
2002-09-20, 02:06:00,VALID,919.022,VALID,0,VALID,99.2665,VALID,0,VALID,20.1132,VALID,80,VALID,0.141493,
2002-09-20, 02:07:00,VALID,918.997,VALID,0,VALID,99.2653,VALID,0.0169808,VALID,20.104,VALID,154,VALID,0.0303571,
2002-09-20, 02:08:00,VALID,918.975,VALID,0,VALID,99.2602,VALID,0,VALID,20.1002,VALID,154,VALID,0,
2002-09-20, 02:09:00,VALID,918.971,VALID,0,VALID,99.2297,VALID,0,VALID,20.0851,VALID,154,VALID,0.0180122,
2002-09-20, 02:10:00,VALID,918.971,VALID,0,VALID,99.2284,VALID,0,VALID,20.0657,VALID,154,VALID,0.109375,
2002-09-20, 02:11:00,VALID,918.964,VALID,0,VALID,99.2309,VALID,0,VALID,20.022,VALID,154,VALID,0.00544508,
2002-09-20, 02:12:00,VALID,918.965,VALID,0,VALID,99.2233,VALID,0,VALID,20.0163,VALID,154,VALID,0.113281,
2002-09-20, 02:13:00,VALID,918.95,VALID,0,VALID,99.2157,VALID,0.0169808,VALID,20.0101,VALID,154,VALID,0,
2002-09-20, 02:14:00,VALID,918.943,VALID,0,VALID,99.2233,VALID,0.0169808,VALID,19.9971,VALID,154,VALID,0,
2002-09-20, 02:15:00,VALID,918.927,VALID,0,VALID,99.2475,VALID,0.0169808,VALID,19.9899,VALID,154,VALID,0,
2002-09-20, 02:16:00,VALID,918.899,VALID,0,VALID,99.2513,VALID,0.0339617,VALID,20.0066,VALID,154,VALID,0,
2002-09-20, 02:17:00,VALID,918.868,VALID,0,VALID,99.2487,VALID,-0.0339617,VALID,20.0044,VALID,154,VALID,0,
2002-09-20, 02:18:00,VALID,918.832,VALID,0,VALID,99.2335,VALID,-0.0679233,VALID,19.9885,VALID,154,VALID,0,
2002-09-20, 02:19:00,VALID,918.802,VALID,0,VALID,99.2398,VALID,-0.0849042,VALID,20.0148,VALID,154,VALID,0.232366,
2002-09-20, 02:20:00,VALID,918.781,VALID,0,VALID,99.2398,VALID,-0.0679233,VALID,20.0011,VALID,154,VALID,0.415771,
2002-09-20, 02:21:00,VALID,918.761,VALID,0,VALID,99.2093,VALID,-0.0849042,VALID,19.9949,VALID,154,VALID,0.46875,
2002-09-20, 02:22:00,VALID,918.726,VALID,0,VALID,99.2106,VALID,-0.0679233,VALID,19.9691,VALID,154,VALID,0.419643,
2002-09-20, 02:23:00,VALID,918.695,VALID,0,VALID,99.2068,VALID,-0.101885,VALID,19.9726,VALID,150,VALID,0.253314,
2002-09-20, 02:24:00,VALID,918.681,VALID,0,VALID,99.1839,VALID,-0.101885,VALID,19.9465,VALID,136,VALID,0.311198,
2002-09-20, 02:25:00,VALID,918.641,VALID,0,VALID,99.1902,VALID,-0.0679233,VALID,19.9405,VALID,96,VALID,0.385491,
2002-09-20, 02:26:00,VALID,918.623,VALID,0,VALID,99.1852,VALID,-0.0849042,VALID,19.94,VALID,82,VALID,0.54834,
2002-09-20, 02:27:00,VALID,918.592,VALID,0,VALID,99.1648,VALID,-0.0849042,VALID,19.9236,VALID,82,VALID,0.497396,
2002-09-20, 02:28:00,VALID,918.588,VALID,0,VALID,99.161,VALID,-0.0849042,VALID,19.9074,VALID,82,VALID,0.454018,
2002-09-20, 02:29:00,VALID,918.58,VALID,0,VALID,99.1559,VALID,-0.101885,VALID,19.8988,VALID,84,VALID,0.540483,
2002-09-20, 02:30:00,VALID,918.575,VALID,0,VALID,99.1445,VALID,-0.0849042,VALID,19.8851,VALID,99,VALID,0.553385,
2002-09-20, 02:31:00,VALID,918.566,VALID,0,VALID,99.1445,VALID,-0.0849042,VALID,19.8853,VALID,99,VALID,0.599554,
2002-09-20, 02:32:00,VALID,918.559,VALID,0,VALID,99.1623,VALID,-0.0169808,VALID,19.8841,VALID,99,VALID,0.666016,
2002-09-20, 02:33:00,VALID,918.546,VALID,0,VALID,99.1623,VALID,0,VALID,19.8806,VALID,95,VALID,0.780165,
2002-09-20, 02:34:00,VALID,918.536,VALID,0,VALID,99.1801,VALID,0.0339617,VALID,19.8833,VALID,88,VALID,0.702902,
2002-09-20, 02:35:00,VALID,918.529,VALID,0,VALID,99.1839,VALID,0.0509425,VALID,19.8898,VALID,83,VALID,0.752367,
2002-09-20, 02:36:00,VALID,918.501,VALID,0,VALID,99.1852,VALID,0,VALID,19.893,VALID,72,VALID,0.851345,
2002-09-20, 02:37:00,VALID,918.473,VALID,0,VALID,99.1763,VALID,0,VALID,19.9,VALID,65,VALID,0.76183,
2002-09-20, 02:38:00,VALID,918.445,VALID,0,VALID,99.175,VALID,0,VALID,19.8968,VALID,61,VALID,0.270508,
2002-09-20, 02:39:00,VALID,918.415,VALID,0,VALID,99.1801,VALID,0.0169808,VALID,19.8965,VALID,46,VALID,0.0329861,
2002-09-20, 02:40:00,VALID,918.4,VALID,0,VALID,99.1801,VALID,0.0169808,VALID,19.8935,VALID,45,VALID,0.04375,
2002-09-20, 02:41:00,VALID,918.396,VALID,0,VALID,99.1826,VALID,0,VALID,19.9263,VALID,45,VALID,0,
2002-09-20, 02:42:00,VALID,918.39,VALID,0,VALID,99.1775,VALID,0,VALID,19.89,VALID,45,VALID,0,
2002-09-20, 02:43:00,VALID,918.409,VALID,0,VALID,99.1724,VALID,0,VALID,19.8965,VALID,42,VALID,0,
2002-09-20, 02:44:00,VALID,918.416,VALID,0,VALID,99.1813,VALID,0.0169808,VALID,19.9059,VALID,42,VALID,0,
2002-09-20, 02:45:00,VALID,918.427,VALID,0,VALID,99.1877,VALID,0.0339617,VALID,19.9191,VALID,42,VALID,0,
2002-09-20, 02:46:00,VALID,918.432,VALID,0,VALID,99.1902,VALID,0,VALID,19.9415,VALID,42,VALID,0,
2002-09-20, 02:47:00,VALID,918.449,VALID,0,VALID,99.1915,VALID,0.0169808,VALID,19.9514,VALID,42,VALID,0,
2002-09-20, 02:48:00,VALID,918.46,VALID,0,VALID,99.1953,VALID,0,VALID,19.9541,VALID,42,VALID,0.00347222,
2002-09-20, 02:49:00,VALID,918.467,VALID,0,VALID,99.1763,VALID,0.0169808,VALID,19.9646,VALID,42,VALID,0.0142857,
2002-09-20, 02:50:00,VALID,918.465,VALID,0,VALID,99.1839,VALID,0,VALID,19.9581,VALID,42,VALID,0,
2002-09-20, 02:51:00,VALID,918.457,VALID,0,VALID,99.1788,VALID,0,VALID,19.9646,VALID,42,VALID,0,
2002-09-20, 02:52:00,VALID,918.444,VALID,0,VALID,99.1826,VALID,0.0339617,VALID,19.97,VALID,42,VALID,0.214732,
2002-09-20, 02:53:00,VALID,918.435,VALID,0,VALID,99.1877,VALID,0.0169808,VALID,20.0101,VALID,29,VALID,0.499053,
2002-09-20, 02:54:00,VALID,918.413,VALID,0,VALID,99.1941,VALID,0,VALID,20.0227,VALID,20,VALID,0.626519,
2002-09-20, 02:55:00,VALID,918.411,VALID,0,VALID,99.1928,VALID,0.0339617,VALID,20.0292,VALID,19,VALID,0.582143,
2002-09-20, 02:56:00,VALID,918.386,VALID,0,VALID,99.1788,VALID,0.0679233,VALID,20.0386,VALID,19,VALID,0.44751,
2002-09-20, 02:57:00,VALID,918.379,VALID,0,VALID,99.1813,VALID,0.0339617,VALID,20.0192,VALID,19,VALID,0.389974,
2002-09-20, 02:58:00,VALID,918.366,VALID,0,VALID,99.1559,VALID,0.0679233,VALID,20.0061,VALID,19,VALID,0.35,
2002-09-20, 02:59:00,VALID,918.36,VALID,0,VALID,99.1432,VALID,0.0339617,VALID,20.0158,VALID,21,VALID,0.402936,
2002-09-20, 03:00:00,VALID,918.335,VALID,0,VALID,99.1305,VALID,0.0169808,VALID,20.0031,VALID,24,VALID,0.56901,
2002-09-20, 03:01:00,VALID,918.324,VALID,0,VALID,99.1267,VALID,0,VALID,19.9738,VALID,23,VALID,0.496652,
2002-09-20, 03:02:00,VALID,918.303,VALID,0,VALID,99.1114,VALID,0.0169808,VALID,19.9773,VALID,23,VALID,0.371094,
2002-09-20, 03:03:00,VALID,918.273,VALID,0,VALID,99.0936,VALID,0,VALID,19.9546,VALID,23,VALID,0.109809,
2002-09-20, 03:04:00,VALID,918.242,VALID,0,VALID,99.0555,VALID,0.0339617,VALID,19.9156,VALID,23,VALID,0.104018,
2002-09-20, 03:05:00,VALID,918.208,VALID,0,VALID,99.0313,VALID,0.0169808,VALID,19.8863,VALID,23,VALID,0.0641572,
2002-09-20, 03:06:00,VALID,918.193,VALID,0,VALID,99.0389,VALID,0.0339617,VALID,19.8831,VALID,23,VALID,0.0516493,
2002-09-20, 03:07:00,VALID,918.183,VALID,0,VALID,99.0351,VALID,0.0509425,VALID,19.8801,VALID,23,VALID,0.00111607,
2002-09-20, 03:08:00,VALID,918.167,VALID,0,VALID,99.0364,VALID,0,VALID,19.8677,VALID,23,VALID,0,
2002-09-20, 03:09:00,VALID,918.149,VALID,0,VALID,99.03,VALID,0,VALID,19.8615,VALID,23,VALID,0.00130208,
2002-09-20, 03:10:00,VALID,918.121,VALID,0,VALID,98.9779,VALID,0,VALID,19.8421,VALID,23,VALID,0.0417411,
2002-09-20, 03:11:00,VALID,918.087,VALID,0,VALID,98.9181,VALID,0,VALID,19.8033,VALID,23,VALID,0.197443,
2002-09-20, 03:12:00,VALID,918.047,VALID,0,VALID,98.9296,VALID,0,VALID,19.7681,VALID,24,VALID,0.0531684,
2002-09-20, 03:13:00,VALID,918.022,VALID,0,VALID,98.9436,VALID,0,VALID,19.7412,VALID,24,VALID,0.00111607,
2002-09-20, 03:14:00,VALID,917.977,VALID,0,VALID,98.9258,VALID,0,VALID,19.7253,VALID,24,VALID,0.00366211,
2002-09-20, 03:15:00,VALID,917.95,VALID,0,VALID,98.9359,VALID,0,VALID,19.7064,VALID,26,VALID,0.124783,
2002-09-20, 03:16:00,VALID,917.926,VALID,0,VALID,98.9067,VALID,0,VALID,19.6841,VALID,43,VALID,0.520536,
2002-09-20, 03:17:00,VALID,917.921,VALID,0,VALID,98.866,VALID,0.0339617,VALID,19.6456,VALID,51,VALID,0.59233,
2002-09-20, 03:18:00,VALID,917.938,VALID,0,VALID,98.9308,VALID,0,VALID,19.623,VALID,77,VALID,0.592231,
2002-09-20, 03:19:00,VALID,917.954,VALID,0,VALID,98.9461,VALID,0,VALID,19.6227,VALID,91,VALID,0.390625,
2002-09-20, 03:20:00,VALID,918.005,VALID,0,VALID,98.9588,VALID,0,VALID,19.6133,VALID,103,VALID,0.358887,
2002-09-20, 03:21:00,VALID,918.03,VALID,0,VALID,98.9728,VALID,0,VALID,19.6033,VALID,120,VALID,0.3852,
2002-09-20, 03:22:00,VALID,918.04,VALID,0,VALID,98.9906,VALID,0.0169808,VALID,19.6138,VALID,120,VALID,0.374554,
2002-09-20, 03:23:00,VALID,918.044,VALID,0,VALID,99.0211,VALID,0,VALID,19.6033,VALID,120,VALID,0.598958,
2002-09-20, 03:24:00,VALID,918.055,VALID,0,VALID,99.0287,VALID,0,VALID,19.6068,VALID,110,VALID,0.626953,
2002-09-20, 03:25:00,VALID,918.057,VALID,0,VALID,99.0351,VALID,0,VALID,19.6001,VALID,105,VALID,0.479018,
2002-09-20, 03:26:00,VALID,918.078,VALID,0,VALID,99.0453,VALID,0,VALID,19.61,VALID,105,VALID,0.374023,
2002-09-20, 03:27:00,VALID,918.09,VALID,0,VALID,99.0644,VALID,0.0169808,VALID,19.6068,VALID,104,VALID,0.343099,
2002-09-20, 03:28:00,VALID,918.105,VALID,0,VALID,99.0605,VALID,0.0509425,VALID,19.6068,VALID,94,VALID,0.364509,
2002-09-20, 03:29:00,VALID,918.121,VALID,0,VALID,99.0885,VALID,0,VALID,19.6167,VALID,85,VALID,0.340909,
2002-09-20, 03:30:00,VALID,918.148,VALID,0,VALID,99.0974,VALID,0,VALID,19.6031,VALID,73,VALID,0.390625,
2002-09-20, 03:31:00,VALID,918.164,VALID,0,VALID,99.0834,VALID,0,VALID,19.6103,VALID,72,VALID,0.176116,
2002-09-20, 03:32:00,VALID,918.185,VALID,0,VALID,99.0885,VALID,0,VALID,19.6006,VALID,72,VALID,0.171143,
2002-09-20, 03:33:00,VALID,918.207,VALID,0,VALID,99.0885,VALID,0,VALID,19.6006,VALID,72,VALID,0.000217014,
2002-09-20, 03:34:00,VALID,918.208,VALID,0,VALID,99.1025,VALID,0,VALID,19.5874,VALID,71,VALID,0.277232,
2002-09-20, 03:35:00,VALID,918.215,VALID,0,VALID,99.1076,VALID,0,VALID,19.5941,VALID,58,VALID,0.314157,
2002-09-20, 03:36:00,VALID,918.225,VALID,0,VALID,99.105,VALID,0,VALID,19.5777,VALID,44,VALID,0.194227,
2002-09-20, 03:37:00,VALID,918.227,VALID,0,VALID,99.1012,VALID,0.0339617,VALID,19.5613,VALID,44,VALID,0.034375,
2002-09-20, 03:38:00,VALID,918.237,VALID,0,VALID,99.0923,VALID,0.0339617,VALID,19.5678,VALID,44,VALID,0.0544434,